x

Nantucket Sound (44020) Wave Buoy

9:50 - Wed 29th Jun 2016 All times are EDT. -4 hours from GMT.

  • Sig Wave height 1.0ft
  • Swell Direction
  • Peak Period 7s
  • Average Period 3s
  • Wind
    7mph
  • Sea Temp 68°f
  • Aire Temp 69°f
  • Sea Pressure 1012mb
  • Nantucket Sound
  • Nantucket Sound

More Historic Weather Station data

Upgrade to MSW Pro to gain access to the past 30 days of data for over 8000 Wavebouys and Weather Stations around the globe.

Join Pro

Comparision Forecast

View Surf forecast
   
mié 06/29 9:50 1ft 7s 3s 7
mph
1012mb 68f 69f
8:50 1ft 7s 3s 9 11 mph 1012.3mb 68f 68f
7:50 1.3ft 7s 3s 9 11 mph 1012.1mb 68f 69f
6:50 1ft 6s 4s 11 16 mph 1012mb 68f 69f
5:50 1ft 3s 3s 9 11 mph 1012.1mb 68f 69f
3:50 0.7ft  -  3s 11 13 mph 1012.4mb 68f 69f
2:50 0.7ft  -  3s 7 9 mph 1012.4mb 68f 69f
1:50 0.7ft  -  3s 13 16 mph 1013.1mb 68f 69f
12:50 0.7ft  -  4s 9 11 mph 1013.6mb 67f 68f
mar 06/28 11:50 0.7ft  -  3s 9 11 mph 1013.8mb 67f 69f
10:50 0.7ft  -  3s 11
mph
1013.7mb 68f 69f
9:50 0.7ft  -  3s 9 11 mph 1014.3mb 68f 68f
8:50 0.7ft  -  4s 9 11 mph 1014.2mb 68f 68f
7:50 1ft 7s 4s 7 9 mph 1013.9mb 68f 69f
6:50 1ft 7s 4s 4
mph
1014mb 68f 69f
5:50 1ft 8s 4s 7
mph
1014.2mb 68f 70f
4:50 0.7ft  -  4s 4 7 mph 1014.6mb 68f 70f
3:50 0.7ft  -  3s 9
mph
1015.2mb 68f 70f
2:50 0.7ft  -  3s 9 11 mph 1015.4mb 69f 69f
1:50 0.7ft  -  3s 9 11 mph 1015.9mb 68f 69f
12:50 0.7ft  -  3s 9
mph
1016.2mb 68f 69f
11:50 1ft 3s 3s 9 11 mph 1016.5mb 67f 69f
10:50 1ft 5s 3s 13 16 mph 1016.7mb 67f 68f
9:50 1.3ft 3s 3s 11 16 mph 1016.9mb 68f 68f
8:50 1.3ft 3s 3s 13 16 mph 1016.8mb 68f 68f
7:50 1.3ft 3s 3s 13 16 mph 1016.9mb 68f 68f
6:50 1.6ft 3s 3s 16 20 mph 1016.3mb 68f 68f
5:50 1.6ft 3s 3s 16 18 mph 1016.3mb 68f 68f
4:50 1.6ft 3s 3s 16 18 mph 1016.4mb 68f 68f
3:50 1.3ft 3s 3s 16 18 mph 1016.4mb 68f 69f
2:50 1.6ft 3s 3s 16 20 mph 1016.9mb 68f 69f
1:50 1.6ft 3s 3s 18 20 mph 1017.2mb 68f 69f
12:50 1.6ft 3s 3s 20 22 mph 1017.4mb 67f 69f
lun 06/27 11:50 1.3ft 3s 3s 16 20 mph 1017.9mb 67f 68f
10:50 1.3ft 3s 3s 16 18 mph 1018.2mb 67f 68f
9:50 1.3ft 3s 3s 16 18 mph 1018.2mb 67f 68f
8:50 1.3ft 3s 3s 16 18 mph 1018mb 68f 68f
7:50 1.3ft 3s 3s 16 18 mph 1017.9mb 68f 68f
6:50 2ft 3s 3s 16 20 mph 1017.9mb 68f 69f
5:50 1.6ft 3s 3s 18 20 mph 1017.9mb 68f 68f
4:50 1.6ft 3s 3s 18 20 mph 1018.3mb 68f 67f
3:50 1.6ft 3s 3s 20 22 mph 1018.2mb 68f 67f
2:50 1.3ft 3s 3s 18 20 mph 1018.9mb 68f 67f
1:50 1ft 3s 3s 18 20 mph 1019.3mb 68f 66f
12:50 1.3ft 3s 3s 16 18 mph 1019.6mb 68f 67f
11:50 1.3ft 3s 3s 16 18 mph 1020mb 67f 66f
10:50 1.3ft 3s 3s 16 18 mph 1019.9mb 66f 67f
9:50 1.3ft 3s 3s 16 18 mph 1020.3mb 66f 66f
8:50 1.3ft 3s 3s 13 16 mph 1020.5mb 66f 66f
7:50 1.3ft 3s 3s 13 16 mph 1020.7mb 67f 66f
6:50 1.3ft 7s 3s 13 16 mph 1020.8mb 67f 65f
5:50 1.6ft 8s 4s 16 18 mph 1020.7mb 67f 65f
4:50 1.3ft 3s 3s 13 16 mph 1021mb 67f 64f
3:50 1.3ft 3s 3s 18 20 mph 1020.6mb 67f 64f
2:50 1.3ft 3s 3s 18 20 mph 1020.4mb 67f 65f
1:50 1ft 3s 3s 18
mph
1020.3mb 67f 66f
12:50 1ft 3s 3s 16 18 mph 1020.3mb 67f 65f
dom 06/26 11:50 1ft 2s 3s 13 16 mph 1020.7mb 66f 65f
10:50 1ft 8s 3s 13
mph
1020.7mb 66f 65f
9:50 1ft 10s 4s 11
mph
1021mb 66f 65f
8:50 1ft 5s 4s 11 13 mph 1021.4mb 67f 64f
7:50 1ft 2s 3s 11 13 mph 1021.6mb 67f 65f
6:50 1.3ft 6s 4s 11 13 mph 1021.9mb 68f 65f
5:50 1.3ft 3s 3s 11 13 mph 1022.1mb 68f 65f
4:50 1ft 7s 4s 11 13 mph 1022.6mb 68f 65f
3:50 0.7ft  -  4s 11 13 mph 1023mb 68f 66f
2:50 0.7ft  -  4s 11
mph
1023.5mb 68f 66f
1:50 0.7ft  -  4s 7
mph
1023.5mb 68f 66f
12:50 0.7ft  -  4s 4
mph
1023.8mb 69f 67f
11:50 0.7ft  -  4s 4 7 mph 1023.7mb 68f 66f
10:50 0.7ft  -  4s 4 7 mph 1023.9mb 66f 65f
9:50 0.7ft  -  4s 9 11 mph 1023.8mb 65f 64f
8:50 0.7ft  -  4s 7
mph
1024.3mb 65f 63f
7:50 0.7ft  -  3s 7 9 mph 1023.5mb 66f 64f
6:50 0.7ft  -  4s 7 9 mph 1023.6mb 66f 65f
5:50 1ft 8s 4s 9
mph
1023.8mb 67f 64f
3:50 1ft 7s 5s 4 7 mph 1023.3mb 67f 65f
2:50 0.7ft  -  5s 2
mph
1022.5mb 67f 64f
1:50 0.7ft  -  4s  -  2 mph 1022.4mb 67f 63f
12:50 0.7ft  -  4s 2 4 mph 1022.6mb 67f 63f
sáb 06/25 11:50 0.7ft  -  4s 7
mph
1022.6mb 66f 62f
10:50 0.7ft  -  4s 4 7 mph 1023.3mb 66f 62f
9:50 0.7ft  -  4s 4
mph
1023.4mb 65f 62f
8:50 0.7ft  -  4s 2 4 mph 1023mb 66f 62f
7:50 1ft 4s 4s 7 9 mph 1022.6mb 66f 62f
6:50 0.7ft  -  4s 9 11 mph 1022.3mb 67f 62f
5:50 1ft 4s 3s 11 13 mph 1022.5mb 68f 62f
4:50 1ft 8s 3s 13 16 mph 1022.1mb 68f 63f
3:50 1.3ft 2s 3s 13 16 mph 1022.1mb 68f 63f
2:50 1.3ft 3s 3s 13 16 mph 1022.6mb 68f 64f